Regional Weather Roundup
Issued by NWS Little Rock, AR

Home | Current Version | Previous Version | Graphics & Text | Print | Product List | Glossary On
Versions: 1 2 3 4 5 6 7 8 9 10 11 12 13 14 15 16 17 18 19 20 21 22 23 24 25 26 27 28 29 30 31 32 33 34 35 36 37 38 39 40 41 42 43 44 45 46 47 48 49 50
000
ASUS44 KLZK 251205
RWRLZK

WEATHER ROUNDUP FOR ARKANSAS
NATIONAL WEATHER SERVICE LITTLE ROCK AR
700 AM CDT SUN SEP 25 2016

NOTE: "FAIR" INDICATES FEW OR NO CLOUDS BELOW 12,000 FEET WITH NO
SIGNIFICANT WEATHER AND/OR OBSTRUCTIONS TO VISIBILITY.

ARZ001-003-010-029-251300-
NORTHWEST ARKANSAS

CITY           SKY/WX    TMP DP  RH WIND       PRES   REMARKS
FAYETTEVILLE   PTCLDY    63  63 100 CALM      30.09R
6HR MIN TEMP:  63; 6HR MAX TEMP:  67;

FORT SMITH     CLOUDY    70  67  90 E5        30.04S
6HR MIN TEMP:  70; 6HR MAX TEMP:  74;

HARRISON       PTCLDY    65  64  97 CALM      30.10R FOG
6HR MIN TEMP:  65; 6HR MAX TEMP:  69;

BENTONVILLE    PTCLDY    68  63  83 E6        30.09S
6HR MIN TEMP:  66; 6HR MAX TEMP:  73;

ROGERS         CLOUDY    66  65  96 CALM      30.10R
6HR MIN TEMP:  66; 6HR MAX TEMP:  72;

SILOAM SPGS    PTCLDY   N/A N/A N/A CALM        N/A
HIGHFILL       PTCLDY    67  67 100 CALM      30.08R
6HR MIN TEMP:  65; 6HR MAX TEMP:  69;

SPRINGDALE     CLEAR     66  66 100 E3        30.10R
$$

ARZ004-005-016-251300-
NORTH CENTRAL ARKANSAS

CITY           SKY/WX    TMP DP  RH WIND       PRES   REMARKS
BATESVILLE     CLEAR     68  66  94 CALM      30.06R
6HR MIN TEMP:  68; 6HR MAX TEMP:  73;

FLIPPIN        CLOUDY    66  63  88 CALM      30.05S
6HR MIN TEMP:  66; 6HR MAX TEMP:  70;

MTN HOME       CLOUDY    67  67 100 CALM      30.07S
6HR MIN TEMP:  66; 6HR MAX TEMP:  70;

$$

ARZ040-041-251300-
WEST CENTRAL ARKANSAS

CITY           SKY/WX    TMP DP  RH WIND       PRES   REMARKS
MENA           CLOUDY    68  66  94 CALM      30.08R
MOUNT IDA      PTCLDY    67  66  97 CALM      30.05R FOG
6HR MIN TEMP:  67; 6HR MAX TEMP:  70;

$$

ARZ009-017-025-026-028-251300-
NORTHEAST ARKANSAS

CITY           SKY/WX    TMP DP  RH WIND       PRES   REMARKS
CORNING          N/A     68  68 100 CALM      30.07R
JONESBORO      CLEAR     69  67  93 CALM      30.05R
6HR MIN TEMP:  69; 6HR MAX TEMP:  73;

NEWPORT        CLEAR     70  69  97 CALM      30.05R
6HR MIN TEMP:  68; 6HR MAX TEMP:  75;

WALNUT RIDGE   CLEAR     72  66  83 NE5       30.05S
6HR MIN TEMP:  70; 6HR MAX TEMP:  73;

BLYTHEVILLE    CLEAR     71  67  87 E5        30.06R
6HR MIN TEMP:  71; 6HR MAX TEMP:  74;

$$

ARZ022-023-033-042-044-251300-
CENTRAL ARKANSAS

CITY           SKY/WX    TMP DP  RH WIND       PRES   REMARKS
LITTLE ROCK    PTCLDY    74  70  87 SW5       30.05S
6HR MIN TEMP:  73; 6HR MAX TEMP:  77;

N LITTLE ROCK    N/A     73  67  82 CALM      30.03R
6HR MIN TEMP:  73; 6HR MAX TEMP:  76;

JACKSONVILLE   CLEAR     70  69  99 W6        30.05R
6HR MIN TEMP:  69; 6HR MAX TEMP:  74;

SEARCY         CLEAR     70  70 100 NW3       30.06R FOG
6HR MIN TEMP:  70; 6HR MAX TEMP:  73;

HOT SPRINGS    CLEAR     70  68  93 CALM      30.06R
6HR MIN TEMP:  70; 6HR MAX TEMP:  74;

RUSSELLVILLE   CLEAR     68  67  96 CALM      30.06R
6HR MIN TEMP:  68; 6HR MAX TEMP:  71;

$$

ARZ036-251300-
EAST ARKANSAS

CITY           SKY/WX    TMP DP  RH WIND       PRES   REMARKS
WEST MEMPHIS   CLEAR     69  66  90 CALM      30.04R
6HR MIN TEMP:  67; 6HR MAX TEMP:  74; 6HR PCP: TRACE;

$$

ARZ050-053-066-070-073-251300-
SOUTHWEST ARKANSAS

CITY           SKY/WX    TMP DP  RH WIND       PRES   REMARKS
ARKADELPHIA    FOG       67  67 100 CALM      30.06R VSB 1/2
6HR MIN TEMP:  66; 6HR MAX TEMP:  71;

TEXARKANA      CLOUDY    70  69  97 CALM      30.05R
6HR MIN TEMP:  69; 6HR MAX TEMP:  78;

EL DORADO      CLEAR     68  67  96 CALM      30.05R FOG
6HR MIN TEMP:  68; 6HR MAX TEMP:  71;

DE QUEEN       CLOUDY    68  68 100 CALM      30.03R FOG
6HR MIN TEMP:  68; 6HR MAX TEMP:  71;

$$

ARZ056-057-069-251300-
SOUTHEAST ARKANSAS

CITY           SKY/WX    TMP DP  RH WIND       PRES   REMARKS
PINE BLUFF     CLEAR     70  69  97 CALM      30.04R
6HR MIN TEMP:  70; 6HR MAX TEMP:  74;

STUTTGART      MOCLDY    73  68  83 W3        30.05R
6HR MIN TEMP:  72; 6HR MAX TEMP:  79;

MONTICELLO     CLEAR     71  69  93 CALM      30.04R
6HR MIN TEMP:  70; 6HR MAX TEMP:  74;


$$





USA.gov is the U.S. government's official web portal to all federal, state and local government web resources and services.